Regional Weather Roundup
Issued by NWS

Home | Current Version | Previous Version | Graphics & Text | Print | Product List | Glossary On
Versions: 1 2 3 4 5 6 7 8 9 10 11 12 13 14 15 16 17 18 19 20 21 22 23 24 25 26 27 28 29 30 31 32 33 34 35 36 37 38 39 40 41 42 43 44 45 46 47 48 49 50
218
ASUS44 KLIX 230510
RWRLA
LOUISIANA WEATHER ROUNDUP
NATIONAL WEATHER SERVICE NEW ORLEANS LA
1200 AM CDT THU OCT 23 2014

NOTE: "FAIR" INDICATES FEW OR NO CLOUDS BELOW 12,000 FEET WITH NO
      SIGNIFICANT WEATHER AND/OR OBSTRUCTIONS TO VISIBILITY.
      SKY/WX - SKY CONDITION AND SIGNIFICANT WEATHER.
      TMP - AIR TEMPERATURE.    DP   - DEWPOINT TEMPERATURE.
      RH  - RELATIVE HUMIDITY.  PRES - PRESSURE.
      HX  - HEAT INDEX.         WCI  - WIND CHILL INDEX.

*  THESE STATIONS ARE NOT NWS OR FAA STATIONS AND ARE NOT UNDER
   NWS QUALITY CONTROL.

LAZ040-048-061>063-065-066-069-230600-
SOUTHEAST LOUISIANA

CITY           SKY/WX    TMP DP  RH WIND       PRES   REMARKS
N.O. AUDUBON     N/A     67  52  59 MISG        N/A
N.O. INTL ARPT CLEAR     69  52  54 NE12      30.07F
N.O. LAKEFRONT LGT RAIN  70  52  52 NE23      30.08S
N.O. DOWNTOWN* FAIR      68  48  49 NE8       30.08F
SLIDELL        CLEAR     54  50  86 N6        30.09S
BATON ROUGE    CLEAR     58  51  78 NE6       30.09F
BOOTHVILLE     CLEAR     72  58  61 NE10G20   30.05F
BELLE CHASSE   CLEAR     64  53  67 NE7       30.06F
BOGALUSA*        N/A     51  48  88 CALM      30.12S
NEW ROADS*     FAIR      58  51  79 N6        30.10S
GONZALES*      FAIR      60  54  78 N3        30.08S
HAMMOND*       CLEAR     61  50  67 NE6       30.11S
HOUMA*         CLEAR     57  55  94 NE3       30.07S
PORT FOURCHON* CLEAR     70  63  78 N6        30.08F

$$

LAZ041-044-053-054-230600-
SOUTHWEST LOUISIANA

CITY           SKY/WX    TMP DP  RH WIND       PRES   REMARKS
LAKE CHARLES   CLEAR     63  53  70 NE7       30.10S
LAFAYETTE      CLEAR     59  55  87 NE5       30.09S
PATTERSON      CLEAR     59  57  94 NE3       30.09F
SALT POINT       N/A     64  57  78 VRB3      30.06F
NEW IBERIA     CLEAR     63  55  75 N9        30.09S
CHENAULT AIRPK CLEAR     61  54  79 N5        30.10F

$$

LAZ027-028-230600-
CENTRAL LOUISIANA

CITY           SKY/WX    TMP DP  RH WIND       PRES   REMARKS
FORT POLK      CLEAR     60  52  74 NE7       30.12F
ALEXANDRIA INT CLEAR     58  51  78 N8        30.12S
ALEXANDRIA     CLEAR     52  50  93 N3        30.13S

$$

LAZ001-002-230600-
NORTHWEST LOUISIANA

CITY           SKY/WX    TMP DP  RH WIND       PRES   REMARKS
SHREVEPORT     PTCLDY    60  52  74 E6        30.13F
BARKSDALE AFB  CLEAR     58  51  79 E3        30.15S
DTN SHREVEPORT CLEAR     56  51  84 CALM      30.15S

$$

LAZ014-016-230600-
NORTHEAST LOUISIANA

CITY           SKY/WX    TMP DP  RH WIND       PRES   REMARKS
MONROE         CLEAR     54  48  80 NE5       30.17S
TALLULAH       CLEAR     51  47  86 NE5       30.14F

$$




USA.gov is the U.S. government's official web portal to all federal, state and local government web resources and services.